E3891 Weather Reports


time (UTC)temp
C
wind
direction
speed
KPH
gust
KPH
rain 1hr
cm
rain 24hr
cm
rain mn
cm
humidity
%
barometer
mb
20260505165421 -17 287 8.0 17.7 0.00 3.66 22.68 1007.3
20260505164937 -17 313 9.7 20.9 0.00 3.66 22.68 1007.6
20260505164433 11 348 1.6 241.4 0.00 3.66 22.68 44 1007.4
20260505163938 11 309 16.1 241.4 0.00 3.66 22.68 44 1007.4
20260505163429 11 271 14.5 243.0 0.00 3.66 22.68 44 1007.2
20260505162941 0 340 1.6 243.0 0.00 3.66 22.68 100 1007.6
20260505162421 -17 299 0.0 14.5 16.61 3.66 22.68 1007.5
20260505161942 -17 348 1.6 14.5 16.61 3.66 22.68 1007.2
20260505161432 -17 331 12.9 14.5 16.61 3.66 22.68 1007.2
20260505161141 0 325 12.9 246.2 16.61 3.66 22.68 45 1007.2
20260505160955 0 323 0.0 243.0 16.61 3.66 22.68 45 1007.5
20260505152920 10 356 0.0 249.4 3.30 3.66 22.68 100 1007.2
20260505152416 0 332 8.0 16.1 16.51 20.09 22.68 100 1007.0
20260505151920 0 333 8.0 254.3 16.51 20.09 22.68 100 1007.1
20260505151415 10 351 0.0 254.3 16.51 20.37 22.68 100 1006.7
20260505150915 10 359 6.4 255.9 16.51 20.37 22.68 100 1006.9
20260505150422 10 325 4.8 255.9 16.51 20.37 22.33 100 1006.9
20260505140159 10 338 0.0 268.8 0.00 5.13 22.33 48 1006.4
20260505130151 9 347 0.0 4.8 0.00 6.73 20.42 55 1007.1
20260505124635 8 333 0.0 4.8 0.38 6.96 19.76 54 1007.4
20260505124133 8 13 0.0 4.8 0.38 6.96 19.76 53 1007.3
20260505123639 8 314 3.2 4.8 0.38 6.96 19.38 57 1007.1
20260505123134 8 320 0.0 4.8 0.38 6.96 19.38 56 1007.1
20260505122936 7 342 0.0 0.0 0.61 6.96 17.58 60 1007.2
20260505122633 9 305 0.0 4.8 0.38 6.96 19.38 56 1007.3
20260505122437 7 341 0.0 0.0 0.23 6.58 11.28 59 1007.0
20260505122142 8 344 0.0 0.0 0.38 6.96 19.38 59 1007.4
20260505121650 8 312 0.0 0.0 0.61 6.96 19.38 56 1007.5
20260505121218 7 341 0.0 0.0 0.61 6.96 17.58 58 1007.2
20260505120158 7 317 0.0 0.0 0.23 6.58 15.67 59 1007.0
20260505115129 7 345 0.0 0.0 0.23 6.58 9.93 58 1006.9
20260505114627 7 344 0.0 0.0 0.46 6.58 7.01 57 1006.5
20260505114128 7 351 0.0 0.0 0.69 6.58 5.59 57 1006.5
20260505113639 7 352 0.0 0.0 0.69 6.58 5.59 57 1006.2
20260505113126 7 352 0.0 0.0 0.69 6.58 5.59 57 1006.3
20260505113037 7 6 0.0 0.0 0.69 6.58 5.59 58 1006.2
20260505112649 7 354 0.0 0.0 0.69 6.58 5.59 57 1006.0
20260505111631 7 9 0.0 0.0 0.46 6.38 4.50 59 1006.1
20260505111128 7 1 0.0 0.0 0.46 6.38 4.50 57 1005.8
20260505111022 7 335 0.0 0.0 0.00 5.92 2.21 55 1005.3
20260505110918 7 3 0.0 0.0 0.46 6.38 4.50 56 1005.4
20260505110641 7 355 0.0 0.0 0.46 6.38 4.50 57 1005.7
20260505110423 7 2 0.0 0.0 0.23 6.15 3.35 55 1005.4
20260505110143 7 4 0.0 0.0 0.46 6.38 4.50 100 1005.6
20260505102134 8 331 0.0 11.3 0.00 5.92 2.21 54 1004.7
20260505101053 8 341 1.6 12.9 0.00 5.92 2.21 51 1003.4
20260505100618 8 341 1.6 12.9 0.00 5.92 2.21 51 1003.3
20260505100049 8 356 0.0 3.2 0.00 5.92 2.21 51 1003.5
20260505095543 8 39 0.0 6.4 0.00 5.92 2.21 50 1004.1
20260505095040 8 355 3.2 6.4 0.00 5.92 2.21 51 1004.5
20260505094529 8 324 0.0 1.6 0.00 5.92 2.21 51 1005.0
20260505094329 16 323 11.3 25.7 0.23 6.22 5.94 38 998.9
20260505094040 8 338 0.0 1.6 0.00 5.92 2.21 52 1005.2
20260505093519 8 341 0.0 0.0 0.00 5.92 2.21 51 1005.1
20260505093041 8 341 0.0 0.0 0.00 5.92 2.21 51 1004.6
20260505092548 8 349 0.0 0.0 0.00 5.92 2.21 50 1004.5
20260505092035 8 342 0.0 0.0 0.00 6.02 2.21 50 1004.5
20260505091520 2 330 0.0 4.8 0.00 6.02 2.21 49 1004.7
20260505091312 9 348 0.0 4.8 0.00 6.02 2.21 48 1004.4
20260505091022 2 351 0.0 4.8 0.00 6.02 2.21 48 1004.3
20260505090021 9 0.0 0.0 0.23 6.02 2.21 48 1004.7
20260505085622 9 326 6.4 17.7 0.23 6.02 2.21 48 1004.8
20260505085511 9 342 0.0 9.7 0.23 6.02 2.21 48 1004.8
20260505085356 9 341 12.9 17.7 0.23 6.02 2.21 48 1004.9
20260505085037 9 342 0.0 9.7 0.23 6.02 2.21 49 1005.1
20260505084558 9 326 6.4 14.5 0.23 6.02 2.21 49 1005.1
20260505083424 1 328 1.6 6.4 0.23 6.02 2.21 47 1003.9
20260505083033 9 329 8.0 12.9 0.23 6.02 2.21 48 1004.4
20260505082006 9 328 1.6 12.9 0.23 6.02 2.21 48 1003.6
20260505081505 9 309 6.4 12.9 0.23 6.02 2.21 50 1003.8
20260505081006 9 339 8.0 12.9 0.23 6.02 2.21 52 1003.9
20260505080510 9 345 14.5 17.7 0.23 6.02 2.21 52 1003.9
20260505080012 9 345 14.5 17.7 0.00 5.82 1.09 52 1003.6
20260505075504 9 346 14.5 16.1 0.00 5.82 1.09 53 1003.6
20260505075332 9 326 14.5 16.1 0.23 5.82 1.09 54 1003.8
20260505075027 9 346 14.5 16.1 0.00 5.82 1.09 55 1004.0
20260505074004 2 9 0.0 9.7 0.23 5.82 1.09 54 1003.0
20260505073508 9 0.0 0.0 0.23 5.82 1.09 56 1003.2
20260505073431 2 352 24.1 33.8 0.23 5.82 1.09 51 1003.6
20260505073029 9 0.0 0.0 0.23 5.82 1.09 52 1002.8
20260505072005 10 352 24.1 33.8 0.23 5.82 1.09 50 1003.8
20260505071507 10 337 4.8 16.1 0.23 5.82 1.09 50 1003.4
20260505071246 10 351 25.7 33.8 0.00 5.59 0.00 49 1002.8
20260505071008 10 337 4.8 16.1 0.23 5.82 1.09 50 1002.9
20260505070932 10 3 11.3 43.5 0.23 5.82 1.09 100 1002.7
20260505070524 10 3 11.3 33.8 0.23 5.82 1.09 51 1002.7
20260505065519 10 330 27.4 43.5 0.23 5.82 1.09 49 1002.7
20260505065106 10 322 22.5 33.8 0.23 5.82 0.89 49 1002.7
20260505064513 10 335 22.5 33.8 0.00 5.59 0.00 48 1003.0
20260505063509 10 336 11.3 27.4 0.00 5.59 0.00 48 1002.5
20260505063436 11 340 30.6 37.0 0.00 5.59 0.00 46 1001.2
20260505062951 10 340 9.7 29.0 0.00 5.59 0.00 100 1002.1
20260505062825 10 338 8.0 40.2 0.00 5.59 0.00 47 1001.4
20260505062502 10 333 22.5 40.2 0.00 5.59 0.00 49 1001.8
20260505061458 11 28 14.5 35.4 0.00 5.59 0.00 48 1001.6
20260505060952 11 327 30.6 35.4 0.00 5.59 0.00 100 1001.5
20260505055930 11 344 17.7 37.0 0.00 5.59 0.00 46 1001.2
20260505055835 11 339 25.7 51.5 0.00 5.59 0.00 45 1001.1
20260505055449 11 349 30.6 51.5 0.00 5.59 0.00 46 1001.0
20260505054439 11 353 27.4 41.8 0.00 5.59 0.00 46 1001.7
20260505053953 11 353 27.4 41.8 0.00 5.59 0.00 46 1001.8
20260505053835 13 351 12.9 37.0 0.23 5.49 6.40 46 1001.2
20260505053440 11 314 27.4 35.4 0.00 5.59 0.00 46 1001.9
20260505052941 11 314 27.4 38.6 0.00 5.59 0.00 47 1002.2
20260505052820 11 324 14.5 35.4 0.00 5.59 0.00 47 1002.1
20260505052810 11 0.0 0.0 0.00 5.59 0.00 48 1002.0
20260505052518 11 339 27.4 38.6 0.00 5.59 0.00 46 1002.0
20260505050925 11 326 9.7 37.0 0.00 5.59 0.00 48 1001.3
20260505050825 14 336 14.5 30.6 0.43 6.27 6.27 41 1000.6
20260505050434 12 340 6.4 41.8 0.00 5.59 0.00 48 1001.3
20260505041514 13 299 19.3 46.7 0.23 5.49 6.40 45 1001.4
20260505040857 14 319 8.0 46.7 0.43 5.49 6.40 44 1001.0
20260505040411 14 317 29.0 43.5 0.43 6.30 6.40 44 1001.2
20260505035850 14 337 17.7 43.5 0.66 6.30 6.35 43 1001.4
20260505035414 14 22 27.4 40.2 0.43 6.27 6.27 42 1001.0
20260505034909 14 326 24.1 38.6 0.43 6.27 6.27 42 1000.8
20260505034401 14 22 19.3 38.6 0.43 6.27 6.27 42 1000.6
20260505033853 14 338 9.7 38.6 0.43 6.27 6.27 42 1000.7
20260505033351 14 22 19.3 33.8 0.43 6.27 6.27 42 1000.4
20260505032922 14 334 19.3 29.0 0.43 6.27 6.27 41 1000.5
20260505032441 14 321 20.9 29.0 0.43 6.27 6.27 100 1000.6
20260505031908 14 316 17.7 27.4 0.43 6.27 6.27 100 1000.8
20260505031115 15 329 19.3 37.0 0.23 6.25 6.07 40 1000.0
20260505030840 26 306 24.1 30.6 0.23 6.25 6.17 40 1000.5
20260505030348 15 270 16.1 29.0 0.43 6.25 6.10 41 1000.3
20260505025911 15 336 17.7 37.0 0.23 6.25 6.07 41 1000.4
20260505024835 15 315 17.7 37.0 0.23 6.25 6.07 100 1000.1
20260505024356 15 298 16.1 30.6 0.23 6.25 6.07 41 1000.1
20260505023922 15 320 20.9 30.6 0.23 6.25 6.07 40 999.8
20260505023348 15 22 6.4 33.8 0.23 6.25 6.07 40 999.8
20260505023152 16 342 12.9 38.6 0.23 6.22 5.94 37 998.6
20260505022843 15 325 17.7 35.4 0.23 6.25 6.07 100 999.8
20260505022539 17 318 11.3 33.8 0.23 6.22 5.94 36 997.7
20260505022340 15 323 19.3 35.4 0.23 6.25 6.07 100 999.8
20260505021910 15 331 19.3 35.4 0.23 6.25 6.07 39 999.6
20260505021344 16 341 25.7 35.4 0.43 6.25 6.07 38 999.5
20260505020850 16 333 14.5 33.8 0.43 6.25 6.07 40 999.0
20260505020344 16 317 14.5 22.5 0.23 6.22 5.94 39 999.1
20260505015747 17 338 24.1 49.9 0.00 6.22 5.41 34 997.3
20260505015349 16 338 8.0 25.7 0.23 6.22 5.94 38 998.9
20260505014930 16 310 19.3 33.8 0.23 6.22 5.94 37 998.7
20260505013903 16 22 20.9 38.6 0.23 6.22 5.94 36 997.8
20260505013429 16 354 16.1 35.4 0.23 6.22 5.94 36 997.8
20260505012349 17 22 14.5 41.8 0.23 6.25 5.94 35 997.4
20260505011837 17 327 8.0 46.7 0.23 6.25 5.84 35 997.4
20260505011358 17 295 30.6 46.7 0.00 6.22 5.61 34 997.3
20260505010741 18 328 24.1 49.9 0.23 6.22 5.18 35 996.9
20260505010337 17 326 27.4 46.7 0.00 6.22 5.41 34 997.3
20260505010135 20 341 25.7 48.3 0.23 6.22 5.18 35 996.6
20260505005841 18 359 24.1 56.3 0.00 6.22 5.28 34 997.1
20260505005734 20 339 6.4 43.5 0.46 6.22 5.18 35 996.4
20260505005355 18 336 24.1 56.3 0.23 6.22 5.28 35 997.2
20260505004928 18 330 27.4 49.9 0.23 6.22 5.28 35 997.0
20260505003850 18 324 29.0 41.8 0.23 6.22 5.18 35 996.8
20260505003425 19 332 19.3 41.8 0.23 6.22 5.18 35 996.7
20260505002935 19 345 11.3 48.3 0.23 6.22 5.18 36 996.6
20260505001319 20 318 17.7 51.5 0.46 6.22 5.18 35
20260505000810 20 22 27.4 51.5 0.46 6.22 5.08 35
20260505000315 20 304 20.9 48.3 0.46 6.22 5.08 35 995.8
20260504235810 21 347 24.1 48.3 0.46 6.22 5.08 35 995.8
20260504235300 21 22 37.0 48.3 0.23 6.20 4.95 34 995.7
20260504234807 21 340 6.4 46.7 0.23 6.20 4.95 33 995.9
20260504234300 22 331 27.4 41.8 0.23 6.20 4.95 32 995.5
20260504233748 22 319 25.7 49.9 0.23 6.20 4.95 33 995.6
20260504233641 22 355 22.5 41.8 0.23 6.20 4.70 34
20260504233312 22 340 24.1 49.9 0.23 6.20 4.85 33 995.7
20260504232819 22 340 30.6 41.8 0.23 6.20 4.85 33
20260504231746 23 315 27.4 40.2 0.00 6.17 4.62 33 995.4
20260504231253 23 330 19.3 41.8 0.00 6.17 4.62 33 995.4
20260504230745 23 318 30.6 41.8 0.00 6.17 4.62 32 995.1
20260504230623 23 312 30.6 40.2 0.00 6.17 4.62 33 994.8
20260504230053 24 319 27.4 46.7 0.00 6.17 4.62 32 995.0
20260504225806 24 23 35.4 46.7 0.00 6.17 4.62 32 995.0
20260504225046 27 293 40.2 49.9 0.00 6.17 4.52 100 993.7
20260504224737 24 23 29.0 46.7 0.00 6.17 4.62 33 995.0
20260504224609 25 349 24.1 43.5 0.00 6.17 4.62 35 994.7
20260504224108 25 315 25.7 40.2 0.00 6.17 4.62 34 994.9
20260504223512 25 332 27.4 43.5 0.00 6.17 4.62 36 994.2
20260504223105 25 322 27.4 43.5 0.00 6.17 4.62 100 994.7
20260504222942 25 10 30.6 46.7 0.00 6.17 4.62 100 994.2
20260504222603 25 310 19.3 40.2 0.00 6.17 4.62 100 994.6
20260504222056 25 321 27.4 41.8 0.00 6.17 4.62 36 994.4
20260504221616 25 23 27.4 43.5 0.00 6.17 4.62 36 994.4
20260504220704 26 343 29.0 43.5 0.00 6.17 4.62 100 993.9
20260504215647 26 337 37.0 46.7 0.00 6.17 4.62 100 994.0
20260504215136 26 332 20.9 51.5 0.00 6.17 4.62 35 994.0
20260504214551 26 323 29.0 53.1 0.00 6.17 4.52 100 993.9
20260504214044 26 305 8.0 53.1 0.00 6.17 4.52 100 994.0
20260504213619 27 287 30.6 49.9 0.00 6.17 4.52 100 994.0
20260504212540 27 23 37.0 51.5 0.00 6.17 4.52 30 993.9
20260504212025 27 291 27.4 51.5 0.00 6.17 4.52 30 993.8
20260504211531 27 325 30.6 40.2 0.00 6.17 4.52 30 993.8
20260504211037 27 269 33.8 40.2 0.00 6.17 4.52 100 993.9
20260504210903 26 271 22.5 43.5 0.00 6.20 4.52 32 994.0
20260504210537 26 274 24.1 37.0 0.00 6.20 4.52 32 993.9
20260504210023 26 310 29.0 41.8 0.00 6.20 4.52 32 994.0
20260504205552 26 291 33.8 41.8 0.00 6.20 4.52 100 993.9
20260504204543 27 345 32.2 43.5 0.00 6.20 4.52 32 994.4
20260504204449 26 281 30.6 33.8 0.00 6.20 4.52 100 994.4
20260504204046 26 291 19.3 35.4 0.00 6.20 4.52 100 994.4
20260504203044 26 252 22.5 38.6 0.00 6.22 4.52 35 994.6
20260504202551 26 23 24.1 38.6 0.05 6.22 4.52 33 994.5
20260504202044 26 268 19.3 38.6 0.05 6.22 4.52 34 994.5
20260504201549 26 277 22.5 40.2 0.05 6.22 4.52 100 994.7
20260504201413 26 272 29.0 41.8 0.05 6.22 4.14 100 994.6
20260504200945 26 289 29.0 41.8 0.05 6.22 4.32 100 994.9
20260504195904 26 279 22.5 41.8 0.05 6.25 4.14 33 994.6
20260504195406 26 283 20.9 29.0 0.05 6.25 4.14 100 995.0
20260504194853 26 284 27.4 40.2 0.05 6.25 4.14 100 994.9
20260504194344 26 282 22.5 40.2 0.05 6.25 4.14 100 994.9
20260504193844 26 280 30.6 40.2 0.28 6.25 4.14 100 995.1
20260504193331 25 279 17.7 35.4 0.28 6.25 4.14 35 995.2
20260504193113 26 267 25.7 37.0 0.23 6.25 3.89 32 995.1
20260504192830 26 271 22.5 38.6 0.23 6.25 3.96 33 995.5
20260504191813 26 280 24.1 41.8 0.23 6.25 3.89 35 995.1
20260504191654 25 287 27.4 38.6 0.23 6.25 3.78 100 995.2
20260504191309 26 235 29.0 41.8 0.23 6.25 3.89 33 995.4
20260504190636 25 304 33.8 41.8 0.23 6.25 3.78 100 995.2
20260504190303 25 280 24.1 40.2 0.23 6.25 3.78 100 995.2
20260504185700 27 24 32.2 46.7 0.23 6.25 3.78 100 995.3
20260504185313 26 249 25.7 46.7 0.23 6.25 3.78 100 995.3
20260504184559 27 263 24.1 41.8 0.00 6.22 3.66 100 995.3
20260504184259 26 280 22.5 41.8 0.23 6.25 3.78 33 995.5
20260504183218 26 274 22.5 38.6 0.00 6.22 3.66 34 995.5
20260504182722 26 277 22.5 37.0 0.00 6.22 3.66 34 995.4
20260504182221 26 292 22.5 38.6 0.00 6.22 3.66 100 995.3
20260504181739 26 278 32.2 38.6 0.25 6.22 3.66 100 995.5
20260504181232 26 301 25.7 41.8 0.25 6.22 3.66 100 995.4
20260504180732 26 289 20.9 43.5 0.25 6.22 3.66 100 995.5
20260504180231 26 233 27.4 43.5 0.25 6.22 3.66 33 995.4
20260504175732 26 269 30.6 40.2 0.25 6.22 3.66 34 995.5
20260504175240 26 306 16.1 37.0 0.25 6.22 3.66 37 995.2
20260504174734 25 275 19.3 37.0 0.25 6.22 3.66 35 995.5
20260504174235 -17 285 24.1 37.0 0.25 6.22 3.66 995.6
20260504173732 26 25 14.5 29.0 0.25 6.22 3.53 35 995.3
20260504173237 26 268 22.5 29.0 0.25 6.22 3.53 35 995.5
20260504172741 26 284 12.9 33.8 0.25 6.22 3.53 100 995.4
20260504172232 25 303 9.7 33.8 0.25 6.22 3.53 100 995.5
20260504171743 25 25 1.6 24.1 0.00 6.20 3.40 35 995.8
20260504171230 25 272 16.1 24.1 0.00 6.20 3.40 38 995.7
20260504170739 25 279 9.7 25.7 0.00 6.20 3.40 42 995.8
20260504170157 25 25 16.1 25.7 0.00 6.20 3.40 100 995.9